Weather reports worldwide

Advertisment
Santiago de Compostela/Labacolla, Spain (8042): temperature & dewpoint: 09.12.2019 19:00:00 - 15.12.2019 19:00:00 (CET)Santiago de Compostela/Labacolla, Spain (8042): wind speed: 09.12.2019 19:00:00 - 15.12.2019 19:00:00 (CET)Santiago de Compostela/Labacolla, Spain (8042): wind direction: 09.12.2019 19:00:00 - 15.12.2019 19:00:00 (CET)Santiago de Compostela/Labacolla, Spain (8042): reduced air pressure: 09.12.2019 19:00:00 - 15.12.2019 19:00:00 (CET)Santiago de Compostela/Labacolla, Spain (8042): visibility: 09.12.2019 19:00:00 - 15.12.2019 19:00:00 (CET)
Date & Time tt [°C] td [°C] ff [km/h] ff [kn] dd ppp [hPa] vv [km]
15.12.2019 19:00:00 - - - - - - -
15.12.2019 18:00:00 8,3 7,1 8 4 S 1006,7 30
15.12.2019 17:00:00 8,8 7,3 13 7 S 1006,9 30
15.12.2019 16:00:00 9,1 8,1 11 6 SSW 1007,3 12
15.12.2019 15:00:00 9,4 8,8 15 8 S 1007,6 19
15.12.2019 14:00:00 9,1 8,7 15 8 SSW 1008,7 22
15.12.2019 13:00:00 8,6 8,6 13 7 SW 1009,3 8
15.12.2019 12:00:00 8,5 8,5 9 5 SW 1010,1 4,4
15.12.2019 11:00:00 8,4 8,4 11 6 SSW 1010,0 7
15.12.2019 10:00:00 8,2 8,2 11 6 SSW 1009,9 1,5
15.12.2019 09:00:00 8,2 8,2 9 5 SSW 1009,5 -
15.12.2019 08:00:00 8,5 8,4 9 5 SSW 1009,1 3,7
15.12.2019 07:00:00 8,9 8,8 11 6 W 1008,8 7
15.12.2019 06:00:00 9,4 9,4 9 5 W 1009,1 6
15.12.2019 05:00:00 9,4 9,3 13 7 WSW 1009,3 8
15.12.2019 04:00:00 10,0 9,8 13 7 WSW 1009,5 8
15.12.2019 03:00:00 11,8 11,6 22 12 WSW 1008,9 6
15.12.2019 02:00:00 11,9 11,7 29 16 SW 1009,3 -
15.12.2019 01:00:00 11,9 11,6 28 15 SW 1009,9 8
15.12.2019 00:00:00 11,8 11,5 31 17 SSW 1009,9 7
14.12.2019 23:00:00 11,4 11,1 29 16 SSW 1010,5 8
14.12.2019 22:00:00 11,6 11,1 28 15 SW 1010,8 6
14.12.2019 21:00:00 11,8 11,3 31 17 SW 1011,4 12
14.12.2019 20:00:00 11,8 11,0 34 18 SW 1011,6 8
14.12.2019 19:00:00 11,2 11,0 29 16 SW 1011,8 6
14.12.2019 18:00:00 11,1 10,3 28 15 SSW 1012,4 3,8
14.12.2019 17:00:00 11,3 10,4 29 16 SW 1013,0 4,7
14.12.2019 16:00:00 11,5 10,6 28 15 SW 1012,8 7
14.12.2019 15:00:00 11,7 10,3 28 15 SSW 1013,4 30
14.12.2019 14:00:00 11,7 10,9 21 11 SW 1014,3 11
14.12.2019 13:00:00 11,3 11,0 18 10 WSW 1015,1 7
14.12.2019 12:00:00 10,8 10,3 24 13 SW 1016,2 8
14.12.2019 11:00:00 10,7 10,7 16 9 SW 1016,3 8
14.12.2019 10:00:00 11,0 10,7 16 9 WSW 1016,1 3,5
14.12.2019 09:00:00 11,1 10,6 18 10 WSW 1016,0 12
14.12.2019 08:00:00 11,1 10,6 21 11 WSW 1016,1 8
14.12.2019 07:00:00 10,8 10,3 21 11 WSW 1016,2 8
14.12.2019 06:00:00 10,9 10,4 18 10 SW 1016,6 12
14.12.2019 05:00:00 10,7 10,4 18 10 SW 1016,9 30
14.12.2019 04:00:00 10,9 10,6 15 8 SW 1017,2 4,0
14.12.2019 03:00:00 10,8 10,3 13 7 SW 1017,2 24
14.12.2019 02:00:00 10,8 10,1 21 11 SW 1017,5 25
14.12.2019 01:00:00 10,9 10,7 18 10 WSW 1017,7 6
14.12.2019 00:00:00 10,8 10,3 26 14 WSW 1018,0 15
13.12.2019 23:00:00 10,8 10,3 18 10 WSW 1018,1 8
13.12.2019 22:00:00 10,7 10,4 18 10 SW 1018,1 7
13.12.2019 21:00:00 10,3 10,0 13 7 SW 1018,6 9
13.12.2019 20:00:00 10,7 9,8 21 11 WSW 1018,6 22
13.12.2019 19:00:00 10,5 9,7 13 7 SW 1018,7 10
13.12.2019 18:00:00 11,1 9,7 22 12 WSW 1018,6 10
13.12.2019 17:00:00 11,6 10,8 21 11 WSW 1018,2 9
13.12.2019 16:00:00 11,6 11,3 15 8 W 1017,9 7
13.12.2019 15:00:00 12,1 11,5 21 11 W 1018,0 10
13.12.2019 14:00:00 12,4 11,9 24 13 W 1018,4 7
13.12.2019 13:00:00 12,4 12,2 16 9 W 1018,6 3,0
13.12.2019 12:00:00 12,4 12,2 15 8 W 1019,1 -
13.12.2019 11:00:00 12,2 12,0 16 9 W 1018,6 3,7
13.12.2019 10:00:00 11,9 11,7 15 8 W 1018,2 3,4
13.12.2019 09:00:00 11,8 11,8 16 9 W 1018,0 7
13.12.2019 08:00:00 11,8 11,6 15 8 W 1017,6 6
13.12.2019 07:00:00 11,8 11,6 18 10 W 1017,0 3,0
13.12.2019 06:00:00 11,8 11,6 16 9 W 1016,7 4,7
13.12.2019 05:00:00 11,9 11,7 16 9 WSW 1016,4 3,5
13.12.2019 04:00:00 11,8 11,6 16 9 WSW 1016,4 3,0
13.12.2019 03:00:00 11,7 11,5 16 9 W 1016,0 8
13.12.2019 02:00:00 11,8 11,5 18 10 WSW 1016,1 2,8
13.12.2019 01:00:00 12,1 11,9 21 11 W 1016,4 3,0
13.12.2019 00:00:00 12,3 12,0 16 9 W 1015,9 3,6
12.12.2019 23:00:00 12,3 12,1 18 10 WSW 1015,5 3,4
12.12.2019 22:00:00 12,3 12,0 16 9 WSW 1015,2 3,0
12.12.2019 21:00:00 12,3 12,1 15 8 W 1014,9 4,0
12.12.2019 20:00:00 12,4 12,1 18 10 W 1014,8 6
12.12.2019 19:00:00 12,4 12,1 22 12 W 1014,5 5
12.12.2019 18:00:00 12,3 12,0 22 12 W 1014,0 7
12.12.2019 17:00:00 12,2 12,0 21 11 W 1014,0 4,2
12.12.2019 16:00:00 12,3 11,8 22 12 W 1013,6 3,0
12.12.2019 15:00:00 11,9 11,6 18 10 W 1013,8 7
12.12.2019 14:00:00 11,5 11,2 24 13 WSW 1014,4 6
12.12.2019 13:00:00 10,9 10,6 24 13 WSW 1015,5 4,0
12.12.2019 12:00:00 10,3 10,1 26 14 WSW 1016,6 -
12.12.2019 11:00:00 9,5 9,4 18 10 SW 1017,5 6
12.12.2019 10:00:00 9,4 8,9 22 12 WSW 1017,7 12
12.12.2019 09:00:00 9,1 8,5 21 11 WSW 1018,8 8
12.12.2019 08:00:00 8,8 8,6 18 10 WSW 1018,9 7
12.12.2019 07:00:00 8,4 8,3 13 7 SW 1019,6 7
12.12.2019 06:00:00 8,5 7,7 18 10 WSW 1020,9 16
12.12.2019 05:00:00 8,7 8,2 18 10 WSW 1021,5 10
12.12.2019 04:00:00 8,6 8,3 16 9 WSW 1022,6 3,0
12.12.2019 03:00:00 8,9 8,4 18 10 WSW 1023,2 8
12.12.2019 02:00:00 8,6 8,3 13 7 WSW 1024,3 4,8
12.12.2019 01:00:00 8,6 7,8 15 8 WSW 1025,3 8
12.12.2019 00:00:00 8,3 7,3 15 8 WSW 1026,0 -
11.12.2019 23:00:00 8,4 7,8 13 7 WSW 1026,6 13
11.12.2019 22:00:00 8,4 7,5 13 7 WSW 1026,8 14
11.12.2019 21:00:00 8,4 7,3 15 8 W 1027,3 17
11.12.2019 20:00:00 8,3 7,5 13 7 WSW 1027,5 11
11.12.2019 19:00:00 8,2 7,3 9 5 WSW 1027,7 15
11.12.2019 18:00:00 8,5 7,4 13 7 WSW 1027,7 13
11.12.2019 17:00:00 8,7 7,8 15 8 W 1027,7 16
11.12.2019 16:00:00 8,8 7,5 15 8 W 1027,4 9
11.12.2019 15:00:00 8,6 7,5 15 8 WSW 1027,8 17
11.12.2019 14:00:00 8,7 7,0 16 9 SW 1028,3 17
11.12.2019 13:00:00 8,7 6,9 11 6 SW 1028,7 20
11.12.2019 12:00:00 8,3 5,2 13 7 WSW 1029,7 18
11.12.2019 11:00:00 7,6 5,0 8 4 W 1029,5 24
11.12.2019 10:00:00 6,3 4,6 8 4 W 1029,2 15
11.12.2019 09:00:00 5,1 3,9 8 4 W 1028,6 17
11.12.2019 08:00:00 5,0 4,4 8 4 W 1028,3 10
11.12.2019 07:00:00 5,3 5,3 8 4 WNW 1027,4 8
11.12.2019 06:00:00 6,2 6,2 9 5 NW 1026,5 12
11.12.2019 05:00:00 6,6 6,6 11 6 NW 1026,2 13
11.12.2019 04:00:00 6,7 6,6 15 8 NNW 1025,8 10
11.12.2019 03:00:00 7,6 7,6 28 15 NNW 1024,7 6
11.12.2019 02:00:00 7,9 7,8 18 10 NNW 1023,8 4,2
11.12.2019 01:00:00 10,3 10,3 15 8 WSW 1023,2 4,0
11.12.2019 00:00:00 9,8 9,8 16 9 SSW 1022,5 4,2
10.12.2019 23:00:00 9,6 9,6 15 8 SSW 1023,2 2,4
10.12.2019 22:00:00 9,2 9,2 24 13 SSW 1023,1 3,5
10.12.2019 21:00:00 8,9 8,6 18 10 SSW 1024,1 6
10.12.2019 20:00:00 9,0 7,7 15 8 S 1024,6 14
10.12.2019 19:00:00 9,1 6,5 15 8 S 1024,9 15
10.12.2019 18:00:00 9,1 6,4 13 7 S 1025,2 21
10.12.2019 17:00:00 9,2 6,6 8 4 SW 1025,4 17
10.12.2019 16:00:00 9,4 6,5 13 7 SSW 1025,4 30
10.12.2019 15:00:00 9,4 5,7 15 8 SW 1026,5 17
10.12.2019 14:00:00 9,7 5,4 18 10 SW 1027,2 30
10.12.2019 13:00:00 8,9 6,0 8 4 S 1027,8 30
10.12.2019 12:00:00 8,1 5,3 9 5 S 1028,8 30
10.12.2019 11:00:00 7,6 4,4 8 4 S 1029,1 30
10.12.2019 10:00:00 4,7 3,8 9 5 S 1029,9 30
10.12.2019 09:00:00 3,4 3,0 8 4 S 1030,2 15
10.12.2019 08:00:00 5,1 2,9 8 4 S 1030,2 30
10.12.2019 07:00:00 4,4 3,1 4 2 SSE 1030,2 25
10.12.2019 06:00:00 4,4 3,4 9 5 S 1030,2 18
10.12.2019 05:00:00 4,6 3,7 8 4 S 1030,8 17
10.12.2019 04:00:00 3,8 3,8 5 3 SSE 1031,6 15
10.12.2019 03:00:00 4,0 4,0 5 3 SE 1031,9 -
10.12.2019 02:00:00 5,0 5,0 4 2 SSE 1032,6 13
10.12.2019 01:00:00 5,4 5,4 4 2 S 1033,3 12
10.12.2019 00:00:00 5,5 5,5 5 3 SSE 1033,4 8
09.12.2019 23:00:00 5,8 5,8 4 2 S 1033,7 11
09.12.2019 22:00:00 5,5 5,5 2 1 WNW 1033,8 6
09.12.2019 21:00:00 6,6 6,6 0 0 N 1033,7 9
09.12.2019 20:00:00 4,7 4,4 4 2 W 1034,2 6
09.12.2019 19:00:00 7,3 6,6 0 0 N 1033,5 11

tt = temperature
td = dewpoint
ff = wind speed
dd = wind direction
ppp = reduced air pressure
vv = visibility

Next stations